[[{"header":{"parameterUnit":"m.s-1","parameterCategory":1,"la1":30.2991,"la2":30.254,"lo1":-89.0895,"lo2":-89.0444,"dy":0.0017,"dx":0.0017,"nx":28,"ny":28,"refTime":"2025-01-24T03:00:00:Z","depth":0,"parameterNumber":2,"parameterNumberName":"U-component_of_WINDS"},"data":[0,0,0,0,0,0,0,0,0,0,0,0,0,0,0,0,0,0,0,0,0,0,0,0,0,0,0,0,0,0,0,0,0,0,0,0,0,0,0,0,0,0,0,0,0,0,0,0,0,0,0,0,0,0,0,0,0,0,-2.8552,-2.8552,0,-2.8573,-2.8574,-2.8574,-2.8508,-2.8506,-2.8504,-2.8502,-2.8522,-2.8525,-2.8527,0,0,0,0,0,0,0,0,0,0,0,0,0,-2.8452,-2.8454,-2.8552,-2.8552,-2.8552,-2.8573,-2.8574,-2.8574,-2.8508,-2.8505,-2.8503,-2.8501,-2.8521,-2.8524,-2.8527,0,0,0,0,0,0,0,0,0,0,0,0,0,-2.8486,-2.8455,-2.8552,-2.8522,-2.852,-2.8573,-2.8574,-2.8574,-2.8508,-2.8505,-2.8502,-2.85,-2.852,-2.8524,-2.8528,-2.861,0,0,-2.8539,-2.854,0,0,0,0,0,0,0,0,-2.8485,-2.849,-2.8526,-2.8524,-2.8522,-2.8535,-2.8546,-2.8586,-2.8509,-2.8513,-2.8502,-2.8498,-2.8529,-2.8531,-2.8542,-2.8611,-2.8612,-2.8539,-2.8541,-2.8543,-2.8544,0,0,0,0,0,0,0,-2.8482,-2.8489,-2.856,-2.8527,-2.8524,-2.8507,-2.8509,-2.8553,-2.8537,-2.8512,-2.8507,-2.8511,-2.8527,-2.8539,-2.8542,-2.8613,-2.8539,-2.8542,-2.8544,-2.8546,-2.8749,-2.8752,0,0,0,0,0,0,-2.8484,-2.8487,-2.856,-2.8561,-2.8495,-2.8511,-2.8513,-2.8534,-2.8537,-2.8534,-2.8513,-2.8508,-2.8534,-2.8538,-2.8543,-2.8637,-2.8543,-2.8546,-2.8548,-2.8745,-2.8749,-2.8753,0,0,0,0,0,0,-2.8482,-2.8491,-2.8559,-2.8523,-2.853,-2.8516,-2.854,-2.8536,-2.8547,-2.8538,-2.8534,-2.8529,-2.8532,-2.8537,-2.8594,-2.8637,-2.8548,-2.8551,-2.8742,-2.8747,-2.8751,-2.883,0,0,0,0,0,0,-2.848,-2.8491,-2.8523,-2.8524,-2.8532,-2.861,-2.8543,-2.8538,-2.8554,-2.8547,-2.8551,-2.8549,-2.853,-2.8589,-2.8597,-2.8641,-2.8554,-2.8738,-2.8744,-2.875,-2.8823,-2.8837,-2.8848,0,0,0,0,0,-2.8476,-2.8544,-2.8525,-2.8534,-2.8572,-2.8613,-2.8617,-2.8595,-2.8558,-2.8589,-2.8583,-2.8549,-2.8632,-2.8595,-2.8604,-2.8649,-2.8735,-2.8742,-2.8749,-2.8817,-2.8834,-2.8848,0,0,0,0,0,0,-2.8548,-2.8544,-2.8522,-2.8593,-2.8604,-2.8602,-2.864,-2.8613,-2.8635,-2.8627,-2.8597,-2.8599,-2.866,-2.8661,-2.862,-2.8729,-2.8677,-2.8686,-2.8725,-2.8741,-2.8753,-2.8751,-2.8557,0,0,0,0,0,-2.8572,-2.8606,-2.8601,-2.8663,-2.867,-2.8655,-2.8672,-2.8653,-2.8663,-2.8667,-2.8665,-2.8676,-2.8704,-2.8723,-2.8749,-2.8824,-2.8822,-2.8859,-2.8872,-2.8882,-2.889,-2.8927,-2.8943,-2.8777,-2.8776,-2.8776,0,0,-2.8622,-2.8624,-2.8647,-2.8678,-2.8684,-2.8719,-2.8659,-2.8699,-2.8724,-2.8673,-2.8725,-2.8725,-2.8734,-2.88,-2.8828,-2.8802,-2.8936,-2.8892,-2.89,-2.8902,-2.8936,-2.8952,-2.8966,-2.8781,-2.8781,-2.878,0,0,-2.8729,-2.8736,-2.8787,-2.8795,-2.8806,-2.8795,-2.8807,-2.881,-2.8807,-2.8859,-2.8821,-2.8851,-2.8901,-2.8909,-2.8919,-2.903,-2.8999,-2.904,-2.9104,-2.9141,-2.9154,-2.9165,-2.9202,-2.9216,-2.9048,-2.9048,-2.9048,0,-2.879,-2.8841,-2.8817,-2.8859,-2.8873,-2.883,-2.8881,-2.8889,-2.8908,-2.8918,-2.8889,-2.8949,-2.8953,-2.9018,-2.9045,-2.9057,-2.9068,-2.9038,-2.9154,-2.9165,-2.9176,-2.921,-2.9225,-2.9053,-2.9052,-2.9052,-2.9051,0,-2.8913,-2.895,-2.8991,-2.9009,-2.9028,-2.9074,-2.9056,-2.9078,-2.9059,-2.9051,-2.9104,-2.9107,-2.9131,-2.9146,-2.9128,-2.9209,-2.9192,-2.9159,-2.9106,-2.9196,-2.9228,-2.9242,-2.9059,-2.9058,-2.9056,-2.9055,0,0,-2.9065,-2.907,-2.9085,-2.9092,-2.91,-2.9128,-2.9172,-2.9196,-2.9214,-2.9229,-2.9264,-2.9307,-2.9277,-2.9289,-2.9271,-2.9304,-2.9388,-2.9266,-2.9266,-2.9286,-2.9475,-2.9497,-2.9513,-2.9369,-2.9371,-2.9373,-2.9473,0,-2.9169,-2.9245,-2.9224,-2.9299,-2.9331,-2.9291,-2.9329,-2.9338,-2.9332,-2.9358,-2.9351,-2.9381,-2.934,-2.9347,-2.9378,-2.9371,-2.9425,-2.9364,-2.9399,-2.94,-2.9394,-2.953,-2.9554,-2.9648,-2.9486,-2.9488,-2.9489,0,-2.93,-2.9319,-2.9397,-2.9399,-2.9411,-2.9446,-2.9466,-2.9492,-2.9501,-2.9494,-2.9508,-2.9483,-2.9525,-2.9474,-2.9531,-2.949,-2.9504,-2.9503,-2.9506,-2.9505,-2.9448,-2.9531,-2.9678,-2.969,-2.9509,-2.9508,-2.9506,0,-2.9399,-2.9445,-2.9497,-2.9504,-2.9509,-2.9533,-2.9536,-2.9542,-2.9558,-2.9575,-2.9585,-2.9607,-2.9619,-2.9637,-2.9618,-2.9583,-2.9677,-2.9625,-2.9671,-2.9671,-2.969,-2.9688,-2.9838,-2.9704,-2.9704,-2.9704,-2.9703,0,-2.9515,-2.9564,-2.9541,-2.9573,-2.9625,-2.9602,-2.9655,-2.9653,-2.9659,-2.9688,-2.9656,-2.9684,-2.966,-2.9686,-2.9672,-2.972,-2.9726,-2.9721,-2.9716,-2.9722,-2.9722,-2.9728,-2.9719,-2.9707,-2.9707,-2.9706,-2.9705,0,-2.9634,-2.9621,-2.9674,-2.9674,-2.9675,-2.9713,-2.9712,-2.9741,-2.9733,-2.9771,-2.9779,-2.9766,-2.9795,-2.978,-2.981,-2.98,-2.9861,-2.9849,-2.9858,-2.9854,-2.9899,-2.9894,-3.0055,-3.0074,-2.9931,-2.9932,-2.9934,0,-2.9707,-2.9743,-2.9747,-2.9764,-2.9769,-2.9799,-2.9814,-2.9793,-2.981,-2.9822,-2.9849,-2.9876,-2.9895,-2.9943,-2.9936,-2.9959,-2.9945,-3.0,-2.9948,-2.9952,-2.9942,-2.9939,-2.9941,-3.0009,-3.0011,-3.0012,-3.0014,0,-2.9838,-2.983,-2.9853,-2.9874,-2.9894,-2.991,-2.9922,-2.9939,-2.9917,-2.9938,-2.9967,-2.9983,-3.0013,-3.0039,-3.0058,-3.006,-3.0033,-3.0031,-3.0042,-3.0046,-3.0049,-3.0045,-2.9883,-3.0026,-3.0025,-3.0024,-3.0023,-3.0023,-2.9934,-2.9963,-2.997,-2.9997,-3.0004,-3.0017,-3.0043,-3.0039,-3.0063,-3.0086,-3.0072,-3.0106,-3.0113,-3.0136,-3.0141,-3.0167,-3.0145,-3.0162,-3.0165,-3.0169,-3.0174,-3.0048,-3.0171,-3.017,-3.017,-3.017,-3.0169,0,-3.006,-3.0062,-3.0088,-3.0106,-3.0127,-3.0101,-3.0114,-3.0133,-3.0163,-3.0172,-3.0192,-3.0225,-3.025,-3.0245,-3.0267,-3.0288,-3.0276,-3.0295,-3.0291,-3.0291,-3.0194,-3.018,-3.0304,-3.0304,-3.0304,-3.0304,-3.0304,-3.0304,-3.0128,-3.0176,-3.0168,-3.0219,-3.022,-3.0253,-3.0262,-3.0273,-3.028,-3.0318,-3.0339,-3.0336,-3.0339,-3.0361,-3.0382,-3.038,-3.0388,-3.0411,-3.0404,-3.0312,-3.0299,-3.0286,-3.0273,-3.0414,-3.0414,-3.0499,-3.05,-3.05]},{"header":{"parameterUnit":"m.s-1","parameterCategory":1,"la1":30.2991,"la2":30.254,"lo1":-89.0895,"lo2":-89.0444,"dy":0.0017,"dx":0.0017,"nx":28,"ny":28,"refTime":"2025-01-24T03:00:00:Z","depth":0,"parameterNumber":3,"parameterNumberName":"V-component_of_WINDS"},"data":[0,0,0,0,0,0,0,0,0,0,0,0,0,0,0,0,0,0,0,0,0,0,0,0,0,0,0,0,0,0,0,0,0,0,0,0,0,0,0,0,0,0,0,0,0,0,0,0,0,0,0,0,0,0,0,0,0,0,-0.1898,-0.1899,0,-0.1991,-0.1992,-0.1993,-0.2102,-0.2104,-0.2105,-0.2107,-0.2203,-0.2204,-0.2205,0,0,0,0,0,0,0,0,0,0,0,0,0,-0.1814,-0.1815,-0.1898,-0.1899,-0.19,-0.1991,-0.1992,-0.1993,-0.2102,-0.2104,-0.2106,-0.2108,-0.2203,-0.2204,-0.2205,0,0,0,0,0,0,0,0,0,0,0,0,0,-0.1873,-0.1816,-0.1898,-0.1965,-0.1972,-0.1991,-0.1992,-0.1994,-0.2101,-0.2104,-0.2106,-0.2109,-0.2203,-0.2204,-0.2206,-0.2166,0,0,-0.221,-0.2211,0,0,0,0,0,0,0,0,-0.187,-0.1876,-0.1954,-0.1961,-0.1968,-0.2037,-0.1998,-0.2051,-0.2101,-0.2052,-0.2107,-0.211,-0.2146,-0.2153,-0.2165,-0.217,-0.2174,-0.221,-0.2211,-0.2212,-0.2213,0,0,0,0,0,0,0,-0.1866,-0.1873,-0.1935,-0.1955,-0.1964,-0.1991,-0.2002,-0.2009,-0.2084,-0.2057,-0.2065,-0.2074,-0.2151,-0.2163,-0.2168,-0.2176,-0.221,-0.2212,-0.2213,-0.2213,-0.2152,-0.2149,0,0,0,0,0,0,-0.1851,-0.1869,-0.1932,-0.1938,-0.1924,-0.199,-0.2003,-0.2013,-0.2084,-0.2098,-0.2072,-0.2079,-0.2159,-0.2166,-0.2171,-0.2128,-0.2212,-0.2214,-0.2214,-0.2154,-0.2151,-0.2148,0,0,0,0,0,0,-0.1849,-0.1856,-0.1928,-0.1905,-0.1917,-0.1989,-0.1999,-0.2013,-0.2026,-0.2096,-0.211,-0.2071,-0.2161,-0.2169,-0.2166,-0.2133,-0.2214,-0.2216,-0.2157,-0.2153,-0.215,-0.2042,0,0,0,0,0,0,-0.1846,-0.1854,-0.184,-0.1904,-0.1917,-0.192,-0.1998,-0.2013,-0.2028,-0.2038,-0.2098,-0.2111,-0.2164,-0.2163,-0.2167,-0.2137,-0.2217,-0.216,-0.2155,-0.2151,-0.2048,-0.2035,-0.2023,0,0,0,0,0,-0.1843,-0.1806,-0.1839,-0.1846,-0.1901,-0.1918,-0.1926,-0.1987,-0.2025,-0.2011,-0.2056,-0.2109,-0.2136,-0.2162,-0.2168,-0.2137,-0.2163,-0.2157,-0.2151,-0.2054,-0.2037,-0.2023,0,0,0,0,0,0,-0.1737,-0.1816,-0.1853,-0.1836,-0.1869,-0.1937,-0.1921,-0.1968,-0.1992,-0.2,-0.2075,-0.2088,-0.2075,-0.2106,-0.2133,-0.2101,-0.2157,-0.2152,-0.2081,-0.2066,-0.2053,-0.2046,-0.2218,0,0,0,0,0,-0.1712,-0.1719,-0.1788,-0.1767,-0.1781,-0.1848,-0.1858,-0.1902,-0.194,-0.1955,-0.2,-0.2035,-0.2051,-0.2061,-0.208,-0.2054,-0.2068,-0.2035,-0.2022,-0.2012,-0.2006,-0.1993,-0.1979,-0.2129,-0.2129,-0.2129,0,0,-0.166,-0.1704,-0.1704,-0.1746,-0.1778,-0.1783,-0.1859,-0.1863,-0.1868,-0.1956,-0.1955,-0.1988,-0.2033,-0.2017,-0.2013,-0.2042,-0.1968,-0.2004,-0.1995,-0.1996,-0.1986,-0.1972,-0.1959,-0.2125,-0.2126,-0.2127,0,0,-0.1567,-0.1602,-0.1587,-0.1616,-0.1662,-0.1707,-0.1703,-0.1763,-0.1788,-0.1788,-0.1854,-0.1861,-0.1888,-0.1916,-0.1934,-0.1851,-0.19,-0.1855,-0.1787,-0.1774,-0.1762,-0.1752,-0.1721,-0.1709,-0.1849,-0.1849,-0.1849,0,-0.1497,-0.1508,-0.1574,-0.1572,-0.1589,-0.1668,-0.1653,-0.1679,-0.1728,-0.1738,-0.177,-0.1805,-0.184,-0.1832,-0.1811,-0.1823,-0.1821,-0.1848,-0.1758,-0.1749,-0.174,-0.1712,-0.17,-0.1843,-0.1844,-0.1845,-0.1845,0,-0.1419,-0.1425,-0.1408,-0.1452,-0.1467,-0.1459,-0.1523,-0.153,-0.1572,-0.1613,-0.1611,-0.1656,-0.1685,-0.1687,-0.1729,-0.1683,-0.17,-0.1744,-0.1802,-0.1719,-0.1693,-0.1683,-0.1835,-0.1837,-0.1839,-0.184,0,0,-0.1263,-0.1343,-0.1335,-0.1356,-0.1412,-0.1418,-0.1413,-0.1441,-0.1445,-0.1476,-0.1473,-0.1494,-0.1534,-0.1554,-0.16,-0.1588,-0.1517,-0.1634,-0.1636,-0.161,-0.1469,-0.1434,-0.142,-0.1551,-0.1549,-0.1548,-0.1465,0,-0.118,-0.1176,-0.1234,-0.1214,-0.122,-0.1295,-0.129,-0.1324,-0.1361,-0.1372,-0.1414,-0.1426,-0.148,-0.1492,-0.1484,-0.1528,-0.149,-0.1535,-0.1548,-0.1548,-0.1534,-0.1407,-0.1371,-0.1291,-0.1455,-0.1454,-0.1452,0,-0.1083,-0.1107,-0.1087,-0.1142,-0.1147,-0.1142,-0.1171,-0.1181,-0.122,-0.1248,-0.1269,-0.1321,-0.132,-0.1375,-0.1373,-0.1402,-0.1411,-0.1433,-0.1432,-0.1435,-0.1494,-0.1406,-0.1267,-0.1254,-0.1437,-0.1439,-0.144,0,-0.0969,-0.0998,-0.0989,-0.1004,-0.1069,-0.1063,-0.109,-0.1132,-0.1144,-0.117,-0.1178,-0.1203,-0.1217,-0.1235,-0.1292,-0.1327,-0.1283,-0.1343,-0.1306,-0.1304,-0.1293,-0.1293,-0.1153,-0.13,-0.13,-0.13,-0.1301,0,-0.087,-0.0854,-0.0939,-0.0933,-0.0918,-0.0985,-0.0968,-0.1002,-0.1038,-0.104,-0.1107,-0.1107,-0.1183,-0.1192,-0.1237,-0.1228,-0.1234,-0.1256,-0.1268,-0.1249,-0.1246,-0.1256,-0.1262,-0.1297,-0.1298,-0.1299,-0.1299,0,-0.0741,-0.0796,-0.0792,-0.0853,-0.0868,-0.0853,-0.0906,-0.0903,-0.0944,-0.0946,-0.095,-0.1015,-0.1029,-0.1087,-0.1116,-0.1146,-0.1121,-0.1146,-0.1108,-0.1115,-0.1074,-0.1076,-0.0934,-0.0919,-0.1076,-0.1075,-0.1073,0,-0.0673,-0.0663,-0.0722,-0.0728,-0.0751,-0.076,-0.0773,-0.0838,-0.0848,-0.0891,-0.0883,-0.0902,-0.0921,-0.0939,-0.0988,-0.101,-0.1034,-0.0983,-0.1038,-0.1019,-0.1032,-0.1031,-0.103,-0.0971,-0.0969,-0.0967,-0.0966,0,-0.0547,-0.0575,-0.059,-0.0614,-0.0627,-0.0649,-0.0676,-0.0677,-0.0749,-0.0757,-0.0772,-0.0786,-0.0814,-0.0831,-0.0861,-0.0889,-0.0938,-0.0948,-0.094,-0.0921,-0.0899,-0.0909,-0.1074,-0.0951,-0.0952,-0.0953,-0.0954,-0.0955,-0.0446,-0.044,-0.048,-0.0494,-0.0521,-0.0543,-0.0543,-0.0584,-0.0597,-0.0624,-0.0662,-0.0671,-0.071,-0.0754,-0.0777,-0.0785,-0.0814,-0.0803,-0.08,-0.0796,-0.0786,-0.0898,-0.0791,-0.0792,-0.0792,-0.0792,-0.0793,0,-0.0323,-0.0352,-0.0364,-0.0398,-0.0409,-0.0455,-0.0486,-0.0492,-0.0499,-0.053,-0.0547,-0.0562,-0.0579,-0.0629,-0.0651,-0.0648,-0.0671,-0.0651,-0.0652,-0.0657,-0.076,-0.0764,-0.0632,-0.0632,-0.0632,-0.0632,-0.0632,-0.0632,-0.0259,-0.0251,-0.0283,-0.0287,-0.0317,-0.0326,-0.0339,-0.036,-0.0386,-0.04,-0.0414,-0.0446,-0.0485,-0.051,-0.0527,-0.0541,-0.0546,-0.0518,-0.0539,-0.0634,-0.065,-0.0665,-0.0668,-0.0518,-0.0518,-0.0435,-0.0435,-0.0434]}]]